Dewpoint
-5 -7 -2 0 -2 -3 -3 -5 -13 -9 -8 -8 -4 -3 -1 -0 4 14 10 12 14 14 13 7 9 11 10 10 11 12 13 13 12 12 10 10 9 10 10 11 8 8 7 4 3 3 3 4 4
-3 0 -2 -3 -0 -1 -3 -10 -10 -12 -9 -8 -7 -7 -4 -1 11 14 14 10 14 13 12 7 7 10 10 11 12 13 13 13 12 13 11 11 10 11 11 10 9 14 4 3 3 4 4 3 1
-1 -1 -4 -2 -2 -2 -7 -10 -11 -10 -9 -9 -8 -8 -4 8 10 13 12 8 13 15 13 7 8 10 10 10 11 12 13 13 13 14 12 12 12 11 11 10 9 9 3 4 4 5 3 1 -4
-2 -2 -5 -3 -4 -8 -10 -11 -11 -11 -10 -7 -6 -7 1 9 11 13 13 14 13 14 15 13 9 10 10 10 10 11 13 13 14 14 13 13 12 11 10 9 9 8 4 5 6 5 2 -4 -14
-2 -3 -2 -2 -4 -8 -11 -12 -12 -10 -10 -9 -5 -3 1 10 12 12 12 13 12 15 15 14 10 10 10 10 10 11 11 13 14 14 13 13 12 11 10 6 6 4 6 8 7 4 -2 -14 -16
-3 -4 -2 -2 -6 -9 -10 -11 -11 -11 -10 -9 -5 -2 1 10 11 14 14 14 15 15 15 14 14 11 11 11 10 10 11 12 13 14 14 13 12 11 10 10 2 4 7 7 6 1 -12 -15 -15
-4 -4 -2 -3 -5 -7 -9 -9 -9 -10 -10 -10 -8 -3 7 11 12 10 15 15 15 15 15 14 14 11 12 11 11 11 11 12 13 13 13 12 12 12 11 9 5 7 9 8 4 -6 -15 -14 -14
-5 -4 -4 -5 -5 -7 -8 -8 -9 -9 -9 -8 -4 -3 0 10 13 13 14 15 15 15 15 15 14 12 12 12 13 12 12 11 11 12 12 11 12 12 9 8 8 8 9 8 -0 -14 -14 -14 -13
-4 -3 -3 -5 -6 -7 -8 -8 -8 -9 -9 -9 -8 -5 4 11 12 14 14 15 14 15 15 14 13 12 13 13 13 13 13 12 12 11 11 12 13 13 12 9 10 10 9 6 -7 -13 -12 -13 -11
-4 -2 -3 -6 -7 -7 -8 -8 -8 -9 -9 -9 -8 -7 2 10 10 12 14 14 15 15 14 14 14 13 13 13 13 14 14 14 13 13 13 13 13 13 13 10 11 10 9 4 -10 -12 -11 -10 -8
-4 -2 -4 -5 -6 -7 -7 -8 -8 -8 -7 -9 -9 -8 -7 8 12 12 13 13 14 15 15 14 14 13 12 13 12 13 14 14 14 12 12 12 12 12 11 11 11 10 9 -5 -12 -10 -5 -6 -2
-4 -5 -6 -6 -7 -7 -7 -7 -7 -7 -7 -7 -7 -7 -7 1 8 10 10 11 13 14 14 14 14 13 14 13 13 13 13 13 13 12 12 11 12 12 11 10 10 8 5 -7 -10 -7 -1 -4 -3
-5 -6 -6 -6 -6 -6 -6 -7 -7 -7 -7 -7 -7 -7 -6 -6 -6 5 7 8 10 13 13 14 15 14 15 14 14 13 13 13 13 13 12 12 12 11 11 10 9 6 1 -7 -6 -6 0 1 -1
-5 -5 -5 -6 -6 -6 -6 -6 -7 -7 -7 -7 -7 -6 -6 -6 -6 -6 -6 2 6 11 11 13 14 15 15 14 14 14 13 13 12 13 13 13 12 11 10 8 8 8 3 -3 -3 -3 -1 4 5
-4 -2 -4 -4 -5 -6 -7 -5 -6 -7 -7 -8 -7 -7 -6 -6 -5 -5 -3 -2 3 8 10 11 13 14 14 14 14 13 13 12 13 13 13 12 11 11 10 10 9 8 2 0 -1 -4 2 4 6
-1 -2 -0 -3 -5 -6 -6 -3 -6 -7 -8 -7 -7 -6 -6 -5 -4 -4 -4 -3 -2 6 11 12 12 12 14 13 14 13 12 12 13 12 13 12 11 10 10 11 9 5 5 2 -2 3 6 5 4
-0 2 0 -2 -5 -5 -5 -3 -6 -7 -8 -8 -7 -7 -6 -6 -6 -6 -6 -4 -1 2 11 11 13 12 13 14 13 13 13 12 13 13 12 12 11 10 10 10 5 5 4 1 1 5 5 5 4
1 1 -1 -0 -3 -4 -4 -4 -6 -7 -8 -7 -7 -7 -8 -9 -10 -9 -9 -8 -1 3 9 11 12 12 13 13 13 13 13 13 13 13 12 11 11 10 10 3 3 6 5 2 4 4 5 3 1
-0 0 0 -2 -4 -4 -3 -4 -6 -7 -7 -8 -9 -9 -10 -10 -9 -9 -9 -8 -7 3 6 8 11 11 12 12 13 13 12 13 13 12 12 11 11 11 10 4 7 3 4 3 4 4 4 3 1
-1 -1 -2 -4 -6 -4 -4 -4 -6 -7 -7 -8 -9 -10 -10 -9 -7 -7 -8 -8 -8 3 8 10 11 11 11 12 12 12 12 12 12 12 12 11 11 11 7 5 5 4 2 2 4 4 3 2 0
-4 -3 -3 -4 -6 -6 -5 -4 -5 -7 -7 -8 -8 -9 -9 -8 -8 -6 -3 -1 4 7 9 11 11 11 11 11 12 12 11 11 11 12 12 11 11 10 7 4 5 3 0 2 3 2 2 1 0
-3 -6 -5 -4 -3 -1 -5 -0 -3 -4 -5 -7 -7 -6 -8 -7 -6 -5 -2 0 3 4 8 9 10 11 11 11 11 11 11 11 11 11 11 11 10 9 7 6 4 2 1 2 2 2 1 -3 -3
-3 -5 -4 -4 -3 -2 -2 -1 -3 -4 -4 -5 -5 -6 -6 -5 -4 -2 -0 -0 1 1 1 2 10 11 11 10 10 10 10 10 10 10 9 9 9 7 7 5 3 2 1 1 2 2 1 -4 -4
-5 -5 -4 -2 -1 2 -1 -1 -1 -1 -1 -3 -5 -7 -5 -3 -2 -0 0 1 1 1 1 0 2 9 10 10 10 10 9 9 9 8 8 8 8 7 6 4 3 2 0 -0 1 1 1 -2 -4
-4 -0 4 5 4 5 -0 1 1 -2 -2 -1 -3 -5 -5 -4 -3 -2 -2 -3 -2 -1 0 0 -1 -1 9 10 10 9 9 8 8 8 8 7 6 6 6 4 3 1 0 0 -1 0 0 -1 -3
-1 0 5 9 5 3 -1 1 -1 -4 -4 -5 -6 -7 -8 -10 -10 -8 -6 -6 -6 -7 -8 -3 1 3 6 8 8 8 7 8 8 8 7 7 6 7 6 4 3 2 -0 -1 -1 0 -1 -0 1
0 3 1 7 5 6 2 -1 -3 -5 -6 -6 -9 -11 -11 -12 -12 -12 -12 -12 -11 -11 -10 -10 -9 -0 3 6 6 4 8 8 7 8 7 6 6 6 6 4 2 2 -0 -1 -2 1 1 0 2
-3 -3 2 6 7 5 -1 -2 -2 -4 -4 -8 -10 -9 -11 -12 -11 -11 -10 -11 -13 -11 -9 -10 -10 -6 -4 0 6 5 5 7 7 7 7 6 5 5 5 4 3 2 -0 -1 -1 1 1 1 2
-1 0 2 2 2 6 6 0 -5 -4 -7 -9 -9 -12 -13 -11 -10 -8 -9 -9 -6 -3 -1 -2 -3 -4 2 -0 -1 2 3 6 6 5 6 6 5 5 4 4 2 2 1 0 1 1 2 1 2
-6 -4 -4 2 2 3 3 2 -5 -8 -10 -12 -12 -11 -4 -6 -10 -7 -6 -4 -1 -0 -1 -1 -2 -3 -4 -0 2 3 4 6 5 5 5 5 5 4 4 3 2 1 1 1 1 0 1 -0 0
Wind_Speed
7 3 2 8 6 7 17 21 4 6 2 2 7 7 12 14 7 9 25 11 13 10 9 20 25 25 24 22 20 20 22 24 23 20 19 17 15 13 11 8 6 5 6 5 5 5 5 4 5
4 6 8 9 8 12 12 7 7 5 7 5 7 12 11 10 15 14 15 10 19 12 8 23 27 27 25 22 21 21 23 24 22 21 19 18 16 13 10 8 7 9 5 7 6 4 4 3 3
6 6 12 6 12 15 8 8 2 6 1 8 8 7 7 4 7 10 10 6 18 16 10 23 27 28 27 24 23 23 23 23 22 20 19 18 15 14 11 9 8 8 6 7 6 4 3 3 4
5 9 10 7 16 19 10 4 6 2 7 5 10 8 6 3 5 6 9 12 13 15 15 17 26 28 27 25 24 25 24 24 23 21 20 18 18 16 13 10 8 9 9 8 6 4 3 4 5
10 13 11 15 19 20 4 4 7 5 9 5 6 14 6 7 9 9 12 15 14 15 21 20 22 27 27 26 24 23 24 24 23 22 22 21 19 17 15 9 9 9 9 7 5 4 4 5 6
16 18 12 14 16 6 2 5 5 7 12 7 8 13 8 14 9 7 9 15 12 18 18 19 20 26 28 27 26 25 23 24 25 25 25 23 22 21 18 15 14 11 9 7 6 5 6 6 7
13 11 16 20 19 19 8 10 1 8 12 13 10 7 4 12 13 11 11 9 14 14 15 15 22 28 28 29 28 27 26 26 26 27 26 26 24 20 17 17 14 12 10 8 7 8 8 7 7
19 12 19 17 15 17 5 4 3 8 14 10 6 4 5 18 14 12 14 14 18 16 20 17 21 28 30 30 29 29 28 28 29 29 29 26 22 19 17 16 15 15 12 11 10 10 9 8 7
20 12 14 18 18 15 7 4 4 8 10 16 11 14 4 11 11 13 15 14 17 22 21 20 20 28 30 29 29 29 27 29 30 30 28 26 23 22 20 18 19 17 14 13 12 11 9 8 10
17 13 21 19 19 17 18 18 13 16 18 17 19 18 14 18 18 17 18 18 20 23 24 22 22 25 29 30 31 31 31 30 30 30 27 25 24 22 25 25 21 19 16 15 15 14 12 11 17
23 19 19 23 30 29 25 23 20 20 18 22 21 19 23 24 17 19 20 19 22 22 23 25 25 24 27 33 31 35 35 33 33 29 26 27 29 29 27 23 20 19 17 18 17 17 13 14 22
23 28 28 28 32 27 23 24 24 26 24 26 26 25 17 15 25 24 22 23 21 24 26 26 27 30 32 35 34 38 37 39 35 31 30 31 28 27 26 23 20 19 20 20 17 18 16 20 23
23 19 26 29 28 29 28 21 24 26 27 27 27 26 25 26 27 25 27 26 27 30 28 29 27 32 36 34 38 38 39 36 34 33 32 30 31 26 25 21 22 22 22 20 20 20 21 21 21
23 26 27 29 29 30 25 24 27 29 30 31 29 29 28 27 32 24 27 26 28 32 32 31 31 34 37 40 37 38 38 36 35 33 37 35 32 29 27 27 27 24 22 21 19 19 22 26 17
15 17 20 21 28 26 31 25 21 21 24 28 26 18 20 16 18 19 18 21 26 30 33 34 37 35 41 39 38 36 36 35 35 33 33 31 30 29 29 29 28 23 23 23 21 21 21 21 24
22 21 19 21 24 24 14 18 16 19 16 9 10 15 19 12 21 22 25 24 25 29 33 34 33 39 43 43 40 38 37 35 35 33 35 33 33 31 31 29 30 26 25 25 24 24 26 26 26
18 19 25 24 20 19 19 22 18 18 20 20 13 16 20 22 24 26 27 28 25 22 31 33 30 37 43 42 44 41 39 37 36 35 35 35 36 35 34 29 27 25 25 26 28 30 30 28 25
17 20 22 21 20 21 25 25 19 23 25 21 18 20 23 18 21 24 26 19 23 22 25 29 29 27 42 42 42 40 41 40 39 40 37 35 35 37 35 29 28 26 26 28 30 31 28 29 28
22 23 26 24 22 22 20 25 18 17 20 20 23 22 25 24 11 13 21 32 26 26 30 33 33 28 34 43 43 44 45 44 42 42 38 34 36 40 36 33 31 31 31 36 33 35 33 31 31
20 23 24 23 22 20 19 29 18 18 18 23 27 30 28 14 12 18 19 31 28 27 27 29 27 25 30 37 46 45 42 44 43 42 40 38 37 37 37 35 35 32 35 37 38 37 37 35 38
19 20 22 25 24 22 17 26 22 14 20 28 30 28 17 9 1 11 8 8 7 8 19 26 24 24 28 32 36 41 42 42 43 42 43 41 40 39 40 37 37 33 38 39 40 40 42 42 39
19 18 20 21 18 19 10 13 35 14 19 15 24 27 5 14 11 12 16 16 8 4 8 16 21 22 26 30 34 34 44 45 46 47 46 44 43 41 42 41 41 35 40 43 42 43 42 41 42
19 17 15 21 19 20 32 10 25 17 19 17 4 19 15 17 10 12 13 13 14 7 4 5 20 25 27 25 31 33 35 44 44 43 41 42 44 46 45 43 44 39 45 45 44 45 43 42 40
13 15 14 19 15 17 25 17 21 14 10 19 12 16 14 13 12 9 9 13 18 19 17 14 11 20 28 28 28 31 33 36 41 39 40 43 43 46 45 47 49 43 46 45 46 45 46 42 38
12 14 7 7 7 13 20 15 12 17 19 15 13 24 26 28 23 15 14 15 16 17 20 22 22 20 19 28 29 30 32 33 43 43 44 43 43 44 46 50 52 48 48 47 46 46 45 39 34
6 6 5 7 11 14 20 11 9 14 21 22 18 23 26 27 29 29 27 23 23 24 25 23 21 19 23 27 31 33 33 34 39 46 45 46 50 50 47 50 50 50 47 48 45 43 41 40 36
2 4 1 4 14 10 12 23 24 14 16 16 20 22 24 27 30 35 40 39 35 37 38 39 35 30 24 30 31 32 32 31 34 45 49 43 44 46 48 51 51 50 46 47 45 46 42 40 35
12 8 6 3 5 9 12 18 11 18 20 23 23 23 29 34 33 32 31 32 37 33 35 41 44 44 43 36 34 34 33 33 35 39 50 45 45 46 47 49 50 51 49 47 47 46 43 43 38
9 10 2 6 7 5 4 9 8 15 20 23 26 42 44 40 34 35 32 31 32 37 37 37 39 40 37 39 41 39 38 36 36 33 45 50 49 47 46 46 49 43 45 50 49 46 46 43 41
18 18 17 7 6 6 5 10 16 18 20 25 31 35 33 37 28 34 25 31 28 32 33 42 36 37 43 41 31 34 36 34 32 34 38 47 50 47 44 43 43 44 45 42 48 47 46 41 40
Wind_Direction
231 224 95 267 246 233 245 241 126 51 47 20 10 329 322 312 324 143 199 197 140 212 204 188 188 183 180 179 180 181 180 182 182 180 179 178 179 177 170 163 155 162 172 166 148 135 122 104 86
202 262 255 271 247 256 253 129 90 230 58 22 293 268 256 261 98 141 163 173 146 208 203 188 187 187 184 182 179 180 181 183 184 185 184 183 184 181 181 180 174 149 168 156 149 143 123 111 93
206 232 260 233 232 261 297 47 56 73 28 265 262 242 292 73 73 134 189 168 159 178 188 190 188 188 188 186 181 182 185 186 189 190 190 190 192 192 194 194 194 184 176 162 165 154 143 126 109
253 230 240 246 260 260 271 336 176 228 248 197 262 287 142 164 111 160 156 161 168 166 172 188 191 190 190 189 187 184 187 192 195 196 195 198 201 201 207 209 204 193 180 176 174 170 163 136 121
245 270 249 260 257 256 224 282 336 287 263 240 221 259 179 147 143 172 166 175 171 159 187 199 196 194 192 191 190 189 188 193 195 196 197 201 201 203 209 216 220 208 188 178 181 177 164 148 126
235 230 263 259 272 279 87 221 240 235 274 226 242 273 299 156 163 159 176 165 189 172 199 188 195 199 195 194 194 192 193 192 193 194 198 201 203 203 209 220 223 205 195 190 189 179 171 157 136
251 265 266 289 302 303 338 51 2 257 280 260 266 245 99 164 161 188 167 183 169 190 206 193 197 197 198 197 198 197 196 195 195 196 197 202 203 206 218 210 199 189 191 189 189 183 177 165 143
238 265 275 274 276 283 103 104 296 289 292 318 321 281 326 158 159 165 163 190 168 198 207 206 198 197 197 198 201 201 202 201 199 198 203 203 209 211 216 207 197 196 195 189 185 179 175 167 142
256 265 262 265 269 291 122 173 221 269 254 272 267 255 207 169 175 163 172 187 199 190 208 207 201 198 198 201 203 206 210 209 206 205 204 208 201 209 209 207 200 201 193 191 179 174 172 156 132
240 247 257 261 281 296 308 291 291 274 258 251 239 249 218 207 207 191 195 200 204 209 209 203 202 196 198 202 204 206 209 210 209 206 205 203 206 207 210 207 196 200 195 195 181 177 171 155 138
249 246 257 271 285 297 304 297 288 286 275 270 267 254 259 205 195 199 211 218 211 213 215 207 203 201 200 207 204 206 207 207 208 211 209 218 211 206 212 206 200 194 196 190 184 178 182 164 146
257 261 262 274 274 292 295 294 293 287 289 290 291 292 282 218 206 213 219 224 216 218 217 211 209 204 206 210 208 204 206 209 211 210 213 217 213 209 210 203 206 196 196 189 181 177 169 166 165
272 274 277 275 280 274 280 281 277 276 278 275 271 267 269 267 263 226 223 221 225 220 222 212 210 210 211 210 209 207 212 211 210 211 217 216 211 208 209 196 200 191 200 187 182 187 190 192 178
287 291 290 290 293 286 281 278 277 274 275 271 263 251 250 259 258 261 266 241 219 224 239 215 208 212 212 216 213 212 211 211 217 216 212 208 214 217 209 188 204 200 202 198 199 198 193 185 188
291 291 286 279 274 270 266 262 267 290 289 273 261 269 259 246 265 258 260 268 231 229 236 232 208 213 217 214 216 213 212 217 218 216 215 208 205 213 219 218 210 202 197 202 195 191 182 181 169
278 275 275 273 267 267 252 260 271 273 293 308 301 294 276 251 248 252 251 253 264 232 226 235 220 214 219 222 216 219 216 217 218 218 219 213 201 211 216 221 210 203 204 198 188 171 180 183 180
263 263 269 271 275 296 269 276 289 291 278 283 237 246 256 258 254 261 261 244 234 249 223 232 224 220 222 223 224 222 221 218 216 219 217 217 211 212 223 223 203 202 202 188 187 181 190 183 179
281 289 291 290 297 305 301 294 306 307 301 290 277 283 270 263 273 269 275 293 230 220 231 239 238 232 224 219 220 223 219 219 219 219 221 224 222 221 220 203 204 207 196 183 188 182 187 190 173
301 296 291 290 295 297 289 286 294 289 287 295 288 276 281 267 265 282 267 271 270 221 225 238 240 240 223 218 220 219 220 214 216 217 221 223 224 217 215 208 214 199 196 186 184 185 177 175 175
278 283 284 287 293 286 296 293 299 296 280 273 269 269 269 258 283 295 287 251 244 216 220 227 237 243 236 232 231 228 223 222 229 221 224 222 227 218 212 210 212 206 194 191 191 189 177 182 187
272 275 287 288 297 287 281 284 286 294 304 305 298 265 262 221 119 24 43 72 118 201 223 225 233 246 245 240 233 236 232 224 219 218 218 223 223 219 211 207 215 205 192 194 197 195 190 187 191
278 282 298 298 302 290 317 297 285 302 287 287 297 301 100 89 78 55 36 48 47 337 260 248 256 251 252 247 242 239 239 231 226 222 223 225 220 217 212 212 215 204 193 196 200 197 199 199 192
285 306 317 308 290 293 289 271 273 292 287 289 334 72 83 96 84 47 14 354 7 0 336 358 259 248 250 251 248 247 244 240 238 230 226 224 218 217 215 207 212 205 199 200 202 201 197 205 198
297 299 293 287 273 268 276 283 286 294 303 44 32 47 62 51 44 40 20 360 353 344 328 328 282 262 251 251 250 253 247 246 231 218 213 219 222 217 214 206 211 207 199 203 202 204 201 205 198
262 261 291 276 232 246 262 274 285 314 54 63 20 19 17 7 9 354 332 323 321 324 318 314 307 275 274 255 261 265 258 249 239 226 216 214 215 218 216 209 208 209 204 205 204 205 203 201 197
320 340 218 279 284 295 307 273 258 305 78 64 35 12 356 351 341 335 332 331 316 310 314 312 293 286 268 266 266 263 259 253 241 229 216 214 218 225 222 210 207 209 206 206 204 204 201 195 194
33 229 326 270 260 265 263 278 275 278 20 15 2 350 341 336 329 322 316 313 309 306 301 298 291 276 264 269 264 264 258 250 244 237 220 215 211 214 221 214 209 209 205 202 199 199 198 194 192
249 280 257 211 256 247 243 268 277 12 353 342 343 340 331 322 314 309 302 299 296 288 282 279 273 270 263 264 272 273 267 257 246 243 232 219 214 214 216 217 207 205 199 196 197 197 197 194 189
264 259 298 313 268 280 270 255 48 360 340 336 332 329 322 313 309 312 301 302 298 298 292 284 279 268 248 250 258 260 261 253 244 244 239 224 218 214 217 214 205 197 195 191 193 194 192 192 190
287 282 279 262 282 271 293 264 325 322 330 319 307 304 320 311 302 302 307 305 301 301 293 277 277 260 255 248 246 265 264 252 248 239 241 228 219 212 211 207 200 190 191 193 191 192 193 190 187
Height
1490 1491 1492 1492 1494 1478 1468 1451 1433 1444 1450 1451 1454 1457 1456 1456 1458 1480 1485 1479 1475 1470 1475 1478 1483 1486 1489 1492 1496 1499 1503 1506 1509 1513 1516 1519 1522 1525 1527 1530 1532 1533 1535 1537 1538 1539 1540 1541 1542
1490 1491 1493 1489 1488 1477 1453 1435 1444 1445 1448 1454 1458 1457 1454 1454 1456 1467 1472 1471 1470 1467 1472 1476 1480 1484 1488 1491 1494 1498 1502 1506 1509 1513 1516 1519 1522 1525 1528 1530 1532 1534 1535 1537 1538 1540 1540 1541 1543
1489 1491 1491 1481 1475 1470 1452 1441 1441 1446 1452 1456 1455 1455 1455 1456 1458 1462 1462 1464 1466 1469 1469 1473 1477 1482 1485 1489 1492 1496 1501 1505 1508 1512 1516 1519 1521 1524 1527 1529 1532 1533 1534 1536 1538 1540 1541 1542 1543
1490 1490 1488 1479 1468 1446 1439 1438 1443 1447 1452 1454 1456 1454 1455 1456 1460 1462 1461 1464 1466 1471 1472 1474 1476 1480 1484 1488 1491 1494 1499 1503 1507 1511 1515 1518 1520 1522 1525 1528 1530 1533 1534 1536 1539 1541 1542 1543 1544
1491 1485 1478 1471 1458 1439 1432 1440 1443 1448 1450 1450 1454 1453 1452 1458 1461 1460 1460 1463 1464 1468 1471 1475 1477 1479 1482 1485 1490 1494 1496 1500 1505 1510 1514 1517 1519 1522 1524 1525 1529 1533 1535 1537 1539 1541 1543 1544 1545
1486 1480 1477 1466 1444 1431 1433 1439 1444 1448 1449 1448 1453 1455 1454 1455 1459 1464 1465 1466 1466 1466 1466 1470 1475 1479 1482 1485 1489 1492 1496 1499 1502 1506 1510 1514 1516 1518 1521 1526 1526 1531 1534 1536 1539 1541 1543 1545 1545
1483 1476 1471 1459 1450 1440 1434 1439 1445 1447 1449 1449 1449 1450 1453 1455 1457 1458 1462 1466 1471 1471 1469 1469 1474 1476 1480 1483 1487 1490 1493 1497 1500 1504 1508 1511 1514 1518 1519 1523 1526 1530 1533 1535 1538 1540 1542 1545 1546
1479 1472 1469 1462 1456 1447 1436 1443 1448 1450 1450 1450 1452 1452 1452 1454 1457 1458 1459 1463 1466 1470 1471 1469 1471 1477 1479 1482 1485 1488 1491 1494 1497 1500 1505 1508 1513 1515 1516 1521 1525 1527 1529 1532 1536 1539 1542 1544 1547
1476 1474 1471 1461 1450 1439 1438 1441 1445 1447 1449 1450 1450 1451 1454 1454 1455 1458 1459 1461 1461 1463 1468 1470 1471 1473 1476 1482 1485 1488 1493 1494 1496 1498 1502 1506 1510 1511 1515 1518 1522 1524 1525 1530 1533 1538 1542 1544 1547
1471 1469 1462 1450 1443 1439 1436 1438 1441 1444 1443 1445 1448 1450 1449 1449 1451 1454 1456 1457 1459 1461 1462 1465 1469 1471 1475 1477 1480 1485 1489 1492 1496 1498 1500 1503 1506 1510 1512 1514 1518 1521 1523 1528 1530 1535 1540 1542 1546
1462 1457 1455 1451 1448 1444 1441 1441 1441 1441 1440 1442 1442 1443 1446 1444 1450 1452 1453 1452 1456 1458 1460 1462 1466 1468 1471 1473 1476 1478 1483 1489 1491 1497 1499 1504 1503 1504 1507 1512 1515 1517 1521 1526 1529 1533 1537 1540 1544
1458 1453 1450 1448 1447 1444 1441 1441 1441 1440 1439 1440 1439 1440 1440 1443 1442 1446 1450 1453 1453 1454 1457 1459 1462 1465 1466 1467 1472 1475 1477 1482 1487 1494 1495 1499 1502 1503 1504 1507 1512 1517 1518 1523 1528 1532 1535 1538 1539
1450 1447 1444 1442 1441 1441 1439 1438 1436 1435 1437 1437 1436 1436 1436 1437 1437 1438 1439 1443 1447 1448 1451 1456 1459 1461 1461 1463 1465 1469 1474 1478 1483 1488 1492 1495 1497 1502 1503 1505 1507 1512 1515 1520 1525 1529 1533 1538 1535
1452 1448 1443 1440 1439 1438 1437 1433 1434 1431 1430 1429 1429 1430 1432 1435 1436 1436 1438 1438 1439 1439 1444 1451 1456 1457 1456 1457 1459 1465 1469 1474 1478 1482 1487 1490 1492 1497 1502 1504 1503 1507 1512 1517 1522 1526 1531 1536 1535
1450 1449 1443 1438 1435 1429 1426 1423 1422 1424 1425 1422 1422 1422 1424 1426 1430 1433 1433 1433 1434 1430 1436 1441 1448 1453 1452 1453 1456 1460 1466 1470 1474 1478 1483 1486 1489 1492 1498 1502 1503 1505 1509 1513 1519 1524 1528 1533 1534
1451 1446 1444 1429 1423 1416 1414 1423 1422 1421 1420 1420 1422 1425 1424 1422 1425 1427 1428 1430 1433 1431 1427 1434 1439 1446 1446 1449 1453 1457 1461 1465 1471 1475 1478 1482 1484 1487 1490 1499 1499 1503 1506 1510 1515 1521 1524 1527 1531
1440 1441 1430 1419 1410 1408 1407 1410 1412 1415 1416 1416 1416 1419 1421 1420 1420 1421 1421 1420 1422 1429 1424 1428 1434 1440 1443 1445 1448 1453 1457 1460 1465 1469 1472 1476 1479 1483 1488 1492 1496 1498 1503 1508 1510 1516 1519 1522 1527
1438 1430 1423 1419 1414 1411 1408 1404 1408 1410 1411 1409 1409 1410 1412 1412 1413 1415 1415 1416 1415 1419 1422 1425 1430 1436 1440 1440 1444 1447 1452 1454 1458 1463 1466 1470 1474 1478 1482 1486 1492 1494 1498 1505 1507 1513 1515 1517 1521
1431 1431 1427 1418 1413 1414 1414 1402 1408 1406 1407 1407 1406 1405 1405 1406 1406 1409 1410 1415 1414 1411 1414 1419 1423 1430 1434 1435 1437 1441 1444 1446 1451 1456 1459 1464 1468 1471 1474 1481 1485 1489 1492 1499 1503 1507 1511 1515 1518
1431 1430 1426 1414 1411 1413 1412 1396 1405 1401 1401 1402 1401 1400 1400 1399 1401 1404 1407 1401 1407 1406 1409 1413 1419 1424 1430 1432 1434 1436 1440 1443 1446 1449 1452 1456 1460 1464 1469 1473 1479 1482 1487 1494 1498 1501 1506 1511 1511
1430 1429 1423 1420 1411 1403 1410 1404 1390 1398 1396 1395 1392 1390 1390 1392 1401 1403 1403 1404 1410 1413 1410 1411 1416 1419 1424 1428 1431 1434 1436 1438 1439 1441 1444 1448 1453 1457 1461 1466 1472 1476 1482 1486 1490 1494 1498 1502 1508
1432 1422 1419 1419 1422 1415 1408 1432 1382 1400 1391 1390 1387 1384 1384 1393 1400 1405 1405 1406 1409 1414 1413 1411 1412 1416 1419 1422 1426 1429 1430 1431 1434 1435 1436 1441 1443 1451 1454 1460 1464 1470 1474 1478 1483 1487 1490 1494 1499
1423 1423 1427 1428 1427 1423 1390 1425 1386 1392 1390 1384 1381 1389 1391 1394 1402 1405 1409 1410 1408 1410 1411 1413 1415 1411 1411 1414 1419 1425 1427 1429 1431 1432 1432 1433 1438 1442 1447 1451 1458 1461 1465 1470 1475 1481 1484 1488 1492
1423 1427 1427 1427 1434 1435 1408 1414 1384 1393 1386 1392 1392 1396 1400 1402 1406 1408 1412 1412 1408 1409 1409 1408 1411 1412 1408 1408 1412 1415 1420 1426 1426 1426 1427 1427 1429 1434 1440 1443 1450 1454 1458 1461 1467 1474 1478 1482 1488
1425 1432 1446 1439 1426 1425 1401 1405 1392 1384 1390 1400 1406 1408 1410 1410 1410 1411 1412 1412 1412 1410 1409 1408 1410 1411 1409 1407 1407 1409 1412 1418 1421 1420 1421 1421 1422 1426 1431 1437 1441 1445 1451 1455 1461 1468 1472 1478 1484
1435 1435 1449 1450 1433 1421 1405 1411 1391 1382 1398 1406 1409 1413 1415 1415 1414 1412 1411 1410 1409 1408 1407 1407 1406 1406 1405 1403 1402 1402 1406 1408 1411 1413 1415 1414 1413 1415 1424 1431 1436 1438 1444 1450 1456 1462 1468 1475 1479
1436 1444 1439 1455 1441 1442 1421 1402 1392 1390 1397 1406 1411 1415 1418 1417 1415 1412 1408 1407 1406 1402 1400 1400 1399 1399 1399 1394 1394 1396 1397 1398 1400 1403 1407 1408 1409 1412 1416 1421 1427 1432 1437 1442 1448 1454 1460 1470 1476
1439 1436 1446 1454 1450 1437 1409 1401 1394 1400 1406 1405 1404 1409 1410 1411 1408 1405 1403 1401 1397 1396 1394 1393 1391 1388 1388 1387 1384 1385 1388 1390 1393 1396 1399 1401 1403 1404 1410 1415 1419 1420 1424 1433 1441 1446 1453 1460 1468
1438 1442 1449 1449 1441 1439 1434 1410 1405 1413 1415 1412 1407 1404 1403 1402 1400 1398 1395 1392 1389 1387 1383 1379 1378 1377 1375 1378 1378 1375 1380 1384 1386 1387 1390 1393 1396 1398 1402 1407 1413 1416 1422 1421 1431 1441 1445 1450 1460
1437 1436 1437 1449 1445 1447 1452 1432 1417 1416 1418 1420 1417 1409 1406 1402 1397 1394 1390 1388 1384 1381 1375 1369 1367 1365 1365 1367 1369 1371 1374 1377 1377 1378 1380 1384 1389 1394 1396 1402 1408 1409 1417 1427 1423 1433 1440 1445 1452